TimeCST,TemperatureF,Dew PointF,Humidity,Sea Level PressureIn,VisibilityMPH,Wind Direction,Wind SpeedMPH,Gust SpeedMPH,PrecipitationIn,Events,Conditions,WindDirDegrees,DateUTC
12:15 AM,57.2,55.4,94,29.93,1.8,ESE,5.8,-,N/A,,Overcast,120,2012-12-07 06:15:00
12:55 AM,57.2,55.4,94,29.93,2.5,SE,3.5,-,N/A,,Overcast,140,2012-12-07 06:55:00
1:15 AM,57.2,55.4,94,29.93,3.0,SSE,3.5,-,N/A,,Overcast,160,2012-12-07 07:15:00
1:35 AM,57.2,55.4,94,29.93,3.0,South,4.6,-,N/A,,Overcast,170,2012-12-07 07:35:00
1:56 AM,59.0,55.4,88,29.93,4.0,South,5.8,-,N/A,,Overcast,190,2012-12-07 07:56:00
2:15 AM,57.2,55.4,94,29.93,3.0,South,4.6,-,N/A,,Overcast,170,2012-12-07 08:15:00
2:35 AM,57.2,55.4,94,29.93,3.0,South,3.5,-,N/A,,Overcast,170,2012-12-07 08:35:00
3:15 AM,57.2,55.4,94,29.93,3.0,SSE,4.6,-,N/A,,Mostly Cloudy,160,2012-12-07 09:15:00
3:35 AM,57.2,53.6,88,29.92,2.5,South,4.6,-,N/A,,Scattered Clouds,180,2012-12-07 09:35:00
3:55 AM,57.2,53.6,88,29.93,0.2,South,4.6,-,N/A,,Overcast,170,2012-12-07 09:55:00
4:35 AM,57.2,53.6,88,29.92,1.2,SSW,5.8,-,N/A,,Overcast,200,2012-12-07 10:35:00
4:55 AM,57.2,53.6,88,29.93,3.0,SSW,5.8,-,N/A,,Overcast,210,2012-12-07 10:55:00
5:35 AM,57.2,53.6,88,29.93,3.0,South,4.6,-,N/A,,Overcast,190,2012-12-07 11:35:00
6:15 AM,55.4,51.8,88,29.94,0.2,SSW,8.1,-,N/A,,Overcast,210,2012-12-07 12:15:00
6:35 AM,57.2,53.6,88,29.94,2.5,South,6.9,-,N/A,,Overcast,180,2012-12-07 12:35:00
7:15 AM,55.4,51.8,88,29.95,3.0,SSW,4.6,-,N/A,,Overcast,210,2012-12-07 13:15:00
7:35 AM,57.2,53.6,88,29.95,3.0,South,5.8,-,N/A,,Overcast,190,2012-12-07 13:35:00
8:35 AM,57.2,53.6,88,29.95,3.0,South,5.8,-,N/A,,Overcast,170,2012-12-07 14:35:00
9:15 AM,59.0,55.4,88,29.95,5.0,SW,3.5,-,N/A,,Overcast,230,2012-12-07 15:15:00
9:55 AM,62.6,55.4,77,29.96,9.0,SW,6.9,-,N/A,,Overcast,220,2012-12-07 15:55:00
10:15 AM,62.6,55.4,77,29.95,10.0,SSW,8.1,-,N/A,,Scattered Clouds,200,2012-12-07 16:15:00
10:55 AM,64.4,55.4,73,29.94,10.0,SSW,10.4,-,N/A,,Partly Cloudy,200,2012-12-07 16:55:00
11:15 AM,64.4,55.4,73,29.93,10.0,SSW,8.1,-,N/A,,Partly Cloudy,210,2012-12-07 17:15:00
11:35 AM,64.4,55.4,73,29.93,10.0,SW,10.4,-,N/A,,Partly Cloudy,220,2012-12-07 17:35:00
11:56 AM,64.4,55.4,73,29.92,10.0,SSW,13.8,-,N/A,,Mostly Cloudy,210,2012-12-07 17:56:00
12:15 PM,64.4,55.4,73,29.91,10.0,SSW,12.7,-,N/A,,Overcast,200,2012-12-07 18:15:00
12:35 PM,66.2,53.6,64,29.90,10.0,SW,13.8,-,N/A,,Overcast,220,2012-12-07 18:35:00
1:15 PM,64.4,53.6,68,29.88,10.0,SSW,13.8,-,N/A,,Overcast,200,2012-12-07 19:15:00
1:35 PM,64.4,51.8,64,29.87,10.0,South,13.8,-,N/A,,Overcast,190,2012-12-07 19:35:00
1:55 PM,64.4,51.8,64,29.86,10.0,South,11.5,-,N/A,,Overcast,180,2012-12-07 19:55:00
2:16 PM,64.4,51.8,64,29.86,10.0,South,11.5,-,N/A,,Overcast,190,2012-12-07 20:16:00
2:35 PM,64.4,51.8,64,29.86,10.0,South,11.5,-,N/A,,Overcast,190,2012-12-07 20:35:00
2:55 PM,64.4,51.8,64,29.86,10.0,South,10.4,-,N/A,,Overcast,180,2012-12-07 20:55:00
3:15 PM,64.4,53.6,68,29.86,10.0,South,9.2,-,N/A,,Overcast,190,2012-12-07 21:15:00
3:35 PM,64.4,53.6,68,29.86,10.0,South,9.2,-,N/A,,Overcast,170,2012-12-07 21:35:00
3:55 PM,64.4,53.6,68,29.86,10.0,South,9.2,-,N/A,,Overcast,170,2012-12-07 21:55:00
4:15 PM,62.6,53.6,72,29.86,10.0,South,8.1,-,N/A,,Overcast,170,2012-12-07 22:15:00
4:55 PM,62.6,53.6,72,29.87,10.0,SSE,3.5,-,N/A,,Overcast,160,2012-12-07 22:55:00
5:15 PM,62.6,53.6,72,29.87,10.0,SE,4.6,-,N/A,,Overcast,140,2012-12-07 23:15:00
5:35 PM,62.6,53.6,72,29.87,10.0,SSE,3.5,-,N/A,,Overcast,160,2012-12-07 23:35:00
5:56 PM,62.6,55.4,77,29.88,10.0,Calm,Calm,-,N/A,,Overcast,0,2012-12-07 23:56:00
6:15 PM,62.6,55.4,77,29.88,10.0,Calm,Calm,-,N/A,,Overcast,0,2012-12-08 00:15:00
6:35 PM,62.6,55.4,77,29.88,10.0,Calm,Calm,-,N/A,,Overcast,0,2012-12-08 00:35:00
7:15 PM,62.6,55.4,77,29.89,10.0,Calm,Calm,-,N/A,,Overcast,0,2012-12-08 01:15:00
7:35 PM,62.6,55.4,77,29.89,10.0,SSE,4.6,-,N/A,,Overcast,150,2012-12-08 01:35:00
7:55 PM,62.6,55.4,77,29.90,10.0,SE,4.6,-,N/A,,Overcast,140,2012-12-08 01:55:00
8:16 PM,62.6,55.4,77,29.90,10.0,Calm,Calm,-,N/A,,Overcast,0,2012-12-08 02:16:00
8:35 PM,60.8,55.4,82,29.89,9.0,SE,6.9,-,N/A,,Overcast,140,2012-12-08 02:35:00
8:55 PM,60.8,55.4,82,29.89,10.0,SE,4.6,-,N/A,,Overcast,140,2012-12-08 02:55:00
9:16 PM,60.8,55.4,82,29.89,9.0,SE,6.9,-,N/A,,Overcast,140,2012-12-08 03:16:00
9:55 PM,60.8,55.4,82,29.89,10.0,SE,6.9,-,N/A,,Overcast,140,2012-12-08 03:55:00
10:16 PM,60.8,55.4,82,29.89,10.0,SSE,8.1,-,N/A,,Overcast,150,2012-12-08 04:16:00
10:35 PM,62.6,55.4,77,29.89,10.0,SSE,8.1,-,N/A,,Overcast,160,2012-12-08 04:35:00
10:55 PM,62.6,55.4,77,29.89,10.0,South,10.4,-,N/A,,Overcast,170,2012-12-08 04:55:00
11:35 PM,62.6,55.4,77,29.89,10.0,South,9.2,-,N/A,,Overcast,180,2012-12-08 05:35:00
11:55 PM,62.6,55.4,77,29.89,10.0,South,9.2,-,N/A,,Overcast,170,2012-12-08 05:55:00